User: anonymous   Login
Location: Caltech
(34.1382°N, 118.1253°W)
Time: 02:23:41
(UTC-07:00)
Language:

IRS-1A Rocket - Orbit

View from above orbital plane
View from above orbital plane
View from above satellite
View from above satellite

Ground track
Ground track

The orbit data is extracted from the following two-line orbital elements,

1 18961U 88021B   14296.05255847 -.00000098  00000-0 -34564-4 0  7670
2 18961 099.2842 271.5476 0054293 001.7344 043.1797 14.00696881359893
Epoch (UTC): 23 October 2014 01:15:41
Eccentricity: 0.0054293
inclination: 99.2842°
perigee height: 852 km
apogee height: 931 km
right ascension of ascending node: 271.5476°
argument of perigee: 1.7344°
revolutions per day: 14.00696881
mean anomaly at epoch: 43.1797°
orbit number at epoch: 35989

The dashed part of the orbit path shows where the satellite is in the earth's shadow,  

DLR